GEFSSGP_con_prob3kmehi_000.txt.gz
EHI
0 0 0 0 0 0 0 0 0 0 0 0 0 0 0 0 0 1 1 1 0 0 1 11 28 37 34 29 18 6 1 0 0 1 6 14 19 15 7 1 0 0 0 0 0 0 0 0 0
0 0 0 0 0 0 0 0 0 0 0 0 0 0 0 0 0 1 2 1 0 0 1 10 25 27 19 13 8 3 1 0 0 1 3 7 11 11 7 2 0 0 0 0 0 0 0 0 0
0 0 0 0 0 0 0 0 0 0 0 0 0 0 0 0 0 2 4 3 1 0 0 6 13 12 6 4 3 2 1 0 0 0 1 1 3 5 4 1 0 0 0 0 0 0 0 0 0
0 0 0 0 0 0 0 0 0 0 0 0 0 0 0 3 10 20 19 8 1 0 0 2 4 4 4 4 4 3 2 0 0 0 0 1 1 1 1 0 0 0 0 0 0 1 1 1 0
0 0 0 0 0 0 0 0 0 0 0 0 0 0 1 12 37 58 49 20 2 0 0 1 2 4 6 7 7 6 4 2 0 1 3 3 1 0 0 0 0 0 1 3 4 4 4 3 1
0 0 0 0 0 0 0 0 0 0 0 0 0 1 8 33 69 84 63 26 4 0 0 1 1 3 7 9 13 17 16 11 9 10 13 12 5 1 0 0 0 2 6 10 10 7 5 4 2
0 0 0 0 0 0 0 0 0 0 0 0 1 3 19 53 84 82 49 17 3 0 0 0 0 2 4 7 21 37 39 30 28 28 26 19 8 2 0 0 1 5 10 12 9 5 3 3 2
0 0 0 0 0 0 0 0 0 0 0 0 1 9 33 69 88 68 27 5 1 0 0 0 0 1 2 5 21 46 51 41 37 35 28 17 6 1 0 0 2 5 8 8 5 2 1 1 1
0 0 0 0 0 0 0 0 0 0 0 5 16 34 62 85 80 47 12 0 0 0 0 0 1 1 2 3 15 33 38 30 26 23 18 9 3 0 0 0 1 2 5 5 3 1 0 0 0
0 0 0 0 0 0 0 0 0 0 3 19 50 76 89 87 59 22 3 0 0 0 0 0 1 1 2 3 9 17 18 13 11 9 6 3 1 0 0 0 0 1 3 2 1 0 0 0 0
0 0 0 0 0 0 0 0 0 0 5 32 75 98 97 75 33 6 0 0 0 0 0 0 1 1 1 2 5 6 5 3 3 2 1 1 0 0 0 0 0 0 1 0 0 0 0 0 0
0 0 0 0 0 0 0 0 0 0 10 44 84 100 95 65 22 1 0 0 0 0 0 0 1 1 1 1 1 1 0 0 0 0 0 0 0 0 0 0 0 0 0 0 0 0 0 0 0
0 0 0 0 0 0 0 0 1 7 28 66 93 100 95 67 24 2 0 0 0 0 0 0 0 1 1 1 0 0 0 0 0 0 0 0 0 1 1 0 0 0 0 0 0 0 0 0 0
0 0 0 0 0 0 0 0 3 21 56 87 99 100 97 72 29 3 0 0 0 0 0 0 0 1 1 0 0 0 0 0 0 0 0 0 0 1 1 0 0 0 0 0 0 0 0 0 0
0 0 0 0 0 0 0 0 5 31 72 94 95 94 94 70 27 2 0 0 0 0 0 0 0 0 0 0 0 0 0 0 0 0 0 0 0 1 1 0 0 0 0 0 0 0 0 0 0
0 0 0 0 0 0 0 0 3 27 66 83 74 72 75 55 18 0 0 0 0 0 0 0 0 1 0 0 0 0 0 0 0 0 0 0 0 0 0 0 0 0 0 0 0 0 0 0 0
0 0 0 0 0 0 0 0 1 14 41 53 43 45 54 38 12 0 0 0 0 0 0 0 0 0 0 0 0 0 0 0 0 0 0 0 0 0 0 0 0 0 0 0 0 0 0 0 0
0 0 0 0 0 0 0 0 0 3 13 20 19 26 39 29 8 0 0 0 0 0 0 0 0 0 0 0 0 0 0 0 0 0 0 0 0 0 0 0 0 0 0 0 0 0 0 0 0
0 0 0 0 0 0 0 0 0 0 2 4 6 13 21 17 5 0 0 0 0 0 0 0 0 0 0 0 0 0 0 0 0 0 0 0 0 0 0 0 0 0 0 0 0 0 0 0 0
0 0 0 0 0 0 0 0 0 0 0 0 1 3 4 4 1 0 0 0 0 0 0 0 0 0 0 0 0 0 0 0 0 0 0 0 0 0 0 0 0 0 0 0 0 0 0 0 0
0 0 0 0 0 0 0 0 0 0 0 0 0 0 0 0 0 0 0 0 0 0 0 0 0 0 0 0 0 0 0 0 0 0 0 0 0 0 0 0 0 0 0 0 0 0 0 0 0
0 0 0 0 0 0 0 0 0 0 0 0 0 0 0 2 3 2 0 0 0 0 0 0 0 0 0 0 0 0 0 0 0 0 0 0 0 0 0 0 0 0 0 0 0 0 0 0 0
0 0 0 0 0 0 0 0 0 0 0 0 1 3 5 7 7 3 0 0 0 0 0 0 0 0 0 0 0 0 0 0 0 0 0 0 0 0 0 0 0 0 0 0 0 0 0 0 0
0 0 0 0 0 0 0 0 0 0 0 3 12 19 17 12 7 2 0 0 0 0 0 0 0 0 0 0 0 0 0 0 0 0 0 0 0 0 0 0 0 0 0 0 0 0 0 0 0
0 0 0 0 0 0 0 0 0 0 0 6 25 35 23 9 3 0 0 0 0 0 0 0 0 0 0 0 0 0 0 0 0 0 0 0 0 0 0 0 0 0 0 0 0 0 0 0 0
0 0 0 0 0 0 0 0 0 0 0 5 21 29 16 3 1 0 0 0 0 0 0 0 0 0 0 0 0 0 0 0 0 0 0 0 0 0 0 0 0 0 0 0 0 0 0 0 0
0 0 0 0 0 0 0 0 0 0 0 2 10 14 6 0 0 0 0 0 0 0 0 0 0 0 0 0 0 0 0 0 0 0 0 0 0 0 0 0 0 0 0 0 0 0 0 0 0
0 0 0 0 0 0 0 0 0 0 0 1 5 5 2 0 0 0 0 0 0 0 0 0 0 0 0 0 0 0 0 0 0 0 0 0 0 0 0 0 0 0 0 0 0 0 0 0 0
0 0 0 0 0 0 0 0 0 0 0 0 1 1 0 0 0 0 0 0 0 0 0 0 0 0 0 0 0 0 0 0 0 0 0 0 0 0 0 0 0 0 0 0 0 0 0 0 0
0 0 0 0 0 0 0 0 0 0 0 0 0 0 0 0 0 0 0 0 0 0 0 0 0 0 0 0 0 0 0 0 0 0 0 0 0 0 0 0 0 0 0 0 0 0 0 0 0

GEFSSGP_con_prob3kmehi_006.txt.gz
EHI
0 0 0 0 0 0 0 0 0 0 0 0 0 0 0 0 0 4 11 11 5 2 1 2 7 9 5 1 3 17 40 57 67 65 51 30 12 3 1 0 0 0 0 0 0 0 0 0 1
0 0 0 0 0 0 0 0 0 0 0 0 0 0 0 0 1 9 17 14 6 2 1 2 7 8 5 2 2 8 18 29 37 36 27 14 5 1 0 0 0 0 0 0 0 0 0 1 2
0 0 0 0 0 0 0 0 0 0 0 0 0 0 0 3 11 23 27 18 6 1 0 2 5 4 3 2 0 0 2 5 8 9 5 2 0 0 0 0 0 0 0 0 0 0 1 2 2
0 0 0 0 0 0 0 0 0 0 0 0 0 0 1 10 31 45 36 16 4 0 0 2 2 1 1 1 0 0 0 0 1 1 0 0 0 0 0 0 0 0 0 0 1 1 2 2 1
0 0 0 0 0 0 0 0 0 0 0 0 0 0 5 24 56 67 44 15 3 0 0 1 1 1 1 1 1 1 1 1 0 0 0 0 0 0 0 0 0 0 1 1 1 2 2 1 0
0 0 0 0 0 0 0 0 0 0 0 0 0 0 12 43 73 75 50 20 5 1 0 1 2 4 9 12 9 6 4 2 0 0 0 0 0 0 0 1 1 1 2 2 1 1 1 0 0
0 0 0 0 0 0 0 0 0 0 0 0 0 0 19 53 69 61 44 22 7 1 0 1 7 19 28 29 21 13 7 3 0 0 1 1 0 0 0 1 1 2 2 1 0 0 0 0 0
0 0 0 0 0 0 0 0 0 0 0 0 0 0 18 46 47 32 25 15 5 0 0 1 11 28 33 26 20 16 11 5 1 0 1 1 0 0 0 1 1 1 2 1 0 0 0 0 0
0 0 0 0 0 0 0 0 0 0 0 0 0 0 17 36 30 13 9 8 5 2 0 1 6 14 15 10 8 10 9 5 1 0 1 1 0 0 0 1 1 0 1 1 0 0 0 0 0
0 0 0 0 0 0 0 0 0 0 0 0 4 14 33 41 26 8 4 5 6 4 1 0 1 1 1 1 1 2 3 2 0 0 0 0 0 0 0 1 1 0 0 0 0 0 0 0 0
0 0 0 0 0 0 0 0 0 0 0 0 13 42 67 57 27 7 3 3 3 3 1 1 2 1 0 0 0 0 0 0 0 0 0 0 0 0 0 0 0 0 0 0 0 0 0 0 0
0 0 0 0 0 0 0 0 0 0 0 0 22 65 88 66 27 7 3 1 1 0 0 1 4 4 2 1 0 0 0 0 0 0 0 0 0 0 0 0 0 0 0 0 0 0 0 0 0
0 0 0 0 0 0 0 0 0 0 0 4 31 74 90 61 25 8 5 2 0 0 0 1 3 5 5 3 2 1 0 0 0 0 0 0 0 0 0 0 0 0 0 0 0 0 0 0 0
0 0 0 0 0 0 0 0 0 0 0 8 36 69 77 51 24 14 9 2 0 0 0 0 1 3 4 4 3 2 1 0 0 0 0 0 0 1 1 1 1 0 0 0 0 0 0 0 0
0 0 0 0 0 0 0 0 0 0 0 7 26 48 56 45 33 31 22 6 1 0 0 0 0 1 2 7 12 12 8 5 2 1 0 0 2 3 3 3 2 1 0 0 0 0 0 0 0
0 0 0 0 0 0 0 0 0 0 0 4 14 29 45 49 49 50 36 11 1 0 0 0 0 2 11 27 41 41 33 22 11 4 1 1 2 2 2 2 2 1 0 0 0 0 0 0 0
0 0 0 0 0 0 0 0 0 1 0 3 11 25 49 67 69 62 39 11 1 0 1 2 5 16 36 60 73 67 51 32 15 5 2 1 1 1 1 1 1 0 0 0 0 0 0 0 0
0 0 0 0 0 0 0 0 0 0 0 3 12 32 62 83 85 66 33 8 2 4 9 14 23 41 60 70 69 54 35 18 8 3 1 0 0 0 0 1 1 0 0 0 0 0 0 0 0
0 0 0 0 0 0 0 0 0 0 0 3 14 37 67 88 89 66 32 12 9 15 28 40 48 53 57 57 45 25 10 2 0 0 0 0 0 0 0 0 0 0 0 0 0 0 0 0 0
0 0 0 0 0 0 0 0 0 0 0 1 9 30 61 86 86 62 35 21 19 27 46 62 61 47 38 36 26 10 2 0 0 0 0 0 0 0 0 0 0 0 0 0 0 0 0 0 0
0 0 0 0 0 0 0 0 0 0 0 0 3 18 49 80 82 58 37 28 26 33 49 62 57 38 21 15 10 4 0 0 0 0 0 0 0 0 0 0 0 0 0 0 0 0 0 0 0
0 0 0 0 0 0 0 0 0 0 0 0 1 9 38 74 83 61 38 29 28 30 38 45 41 25 10 2 0 0 0 0 0 0 0 0 0 0 0 0 0 0 0 0 0 0 0 0 0
0 0 0 0 0 0 0 0 0 0 0 0 0 4 29 66 81 63 37 25 22 20 21 23 19 10 3 1 0 0 0 0 0 0 0 0 0 0 0 0 0 0 0 0 0 0 0 0 0
0 0 0 0 0 0 0 0 0 0 0 0 1 7 30 61 69 47 24 14 11 8 6 7 5 2 1 0 0 0 0 0 0 0 0 0 0 0 0 0 0 0 0 0 0 0 0 0 0
0 0 0 0 0 0 0 0 0 0 0 0 5 20 43 57 45 21 8 4 3 1 1 1 1 0 0 0 0 0 0 0 0 0 0 0 0 0 0 0 0 0 0 0 0 0 0 0 0
0 0 0 0 0 0 0 0 0 0 0 2 14 37 49 40 20 5 0 0 0 0 0 0 0 0 0 0 0 0 0 0 0 0 0 0 0 0 0 0 0 0 0 0 0 0 0 0 0
0 0 0 0 0 0 0 0 0 0 0 5 23 41 36 17 5 0 0 0 0 0 0 0 0 0 0 0 0 0 0 0 0 0 0 0 0 0 0 0 0 0 0 0 0 0 0 0 0
0 0 0 0 0 0 0 0 0 0 0 6 24 32 20 5 1 0 0 0 0 0 0 0 0 0 0 0 0 0 0 0 0 0 0 0 0 0 0 0 0 0 0 0 0 0 0 0 0
0 0 0 0 0 0 0 0 0 0 0 5 16 19 10 1 0 0 0 0 0 0 0 0 0 0 0 0 0 0 0 0 0 0 0 0 0 0 0 0 0 0 0 0 0 0 0 0 0
0 0 0 0 0 0 0 0 0 0 0 3 9 12 6 1 0 0 0 0 0 0 0 0 0 0 0 0 0 0 0 0 0 0 0 0 0 0 0 0 0 0 0 0 0 0 0 0 0

GEFSSGP_con_prob3kmehi_012.txt.gz
EHI
0 0 0 0 0 0 0 0 0 0 0 0 0 0 0 3 15 25 24 40 64 51 25 38 52 34 11 3 2 3 2 1 2 2 2 1 0 0 0 0 0 0 0 0 0 0 0 0 0
0 0 0 0 0 0 0 0 0 0 0 0 0 0 0 2 8 19 24 35 48 38 21 30 42 29 9 2 1 2 1 1 2 2 2 1 0 0 0 0 0 0 0 0 0 0 0 0 0
0 0 0 0 0 0 0 0 0 0 0 0 0 0 0 2 11 24 27 25 34 42 36 38 38 25 8 1 0 0 0 1 1 1 1 0 0 0 0 0 0 0 0 0 0 0 1 0 0
0 0 0 0 0 0 0 0 0 0 0 0 0 0 2 10 26 35 23 15 32 60 63 52 43 27 9 2 0 1 1 1 0 0 0 0 0 0 0 0 0 0 0 0 0 0 0 0 0
0 0 0 0 0 0 0 0 0 0 0 0 0 1 7 23 37 30 13 9 30 67 75 56 42 28 9 2 1 2 2 1 1 1 0 0 0 0 0 0 0 0 0 0 0 0 0 0 0
0 0 0 0 0 0 0 0 0 0 0 0 1 3 14 32 36 21 8 8 29 65 70 45 29 18 5 1 1 2 1 1 0 0 0 0 0 0 0 0 0 0 0 0 0 0 0 0 0
0 0 0 0 0 0 0 0 0 0 0 0 1 7 22 38 35 20 11 11 30 60 58 29 11 6 1 1 1 2 1 0 0 0 0 0 0 0 0 0 0 0 0 0 0 0 0 0 0
0 0 0 0 0 0 0 0 0 0 0 0 0 10 32 48 40 29 25 21 33 56 56 30 10 2 1 0 1 2 1 0 0 0 0 0 0 0 0 0 0 0 0 0 0 0 0 0 0
0 0 0 0 0 0 0 0 0 0 0 0 3 16 40 50 43 42 49 47 49 65 70 52 26 8 1 0 0 1 1 0 0 0 0 0 0 0 0 0 0 0 0 0 0 0 0 0 0
0 0 0 0 0 0 0 0 0 0 0 1 7 25 42 46 41 47 65 73 72 74 70 57 39 19 10 6 2 0 0 0 2 3 2 0 0 0 0 0 0 0 0 0 0 0 0 0 0
0 0 0 0 0 0 0 0 0 0 0 1 8 25 39 41 36 40 60 79 81 65 44 39 38 29 21 13 5 4 8 13 17 16 7 0 0 1 2 2 2 1 0 0 0 0 0 0 0
0 0 0 0 0 0 0 0 0 0 0 0 5 17 29 31 27 28 45 68 73 46 22 23 34 35 30 23 13 16 30 40 42 30 9 0 0 1 4 6 6 3 0 0 1 0 0 0 1
0 0 0 0 0 0 0 0 0 0 0 0 3 11 19 19 18 23 40 62 69 46 21 26 47 55 53 44 31 35 55 63 54 29 8 1 6 16 24 23 16 8 6 8 8 5 1 1 3
0 0 0 0 0 0 0 0 0 0 0 0 1 8 13 13 16 30 52 73 83 68 44 49 71 82 79 60 42 47 62 66 54 39 24 16 23 40 51 49 39 29 23 22 19 13 9 8 7
0 0 0 0 0 0 0 0 0 0 0 0 0 5 12 15 21 41 69 88 96 90 77 71 79 90 86 60 42 46 59 66 70 69 60 44 40 46 57 65 63 52 40 33 29 25 23 20 14
0 0 0 0 0 0 0 0 0 0 0 0 0 4 14 23 32 54 82 97 100 99 94 80 74 87 87 67 55 60 71 80 87 89 80 61 41 36 48 62 62 52 40 35 30 27 26 21 14
0 0 0 0 0 0 0 0 0 0 0 0 0 4 16 33 50 72 91 99 100 100 96 85 81 90 92 86 83 86 89 91 89 84 73 54 32 26 38 45 40 32 27 24 19 15 13 9 6
0 0 0 0 0 0 0 0 0 0 0 0 0 3 16 40 69 89 97 100 100 100 98 95 95 97 97 96 96 95 92 85 76 66 54 37 21 15 20 23 18 13 12 10 6 2 1 1 0
0 0 0 0 0 0 0 0 0 0 0 0 0 3 16 46 80 97 99 100 100 100 100 100 100 99 98 97 95 91 83 71 55 42 30 19 10 7 7 8 6 4 3 2 1 0 0 0 0
0 0 0 0 0 0 0 0 0 0 0 0 0 1 14 49 84 98 99 99 99 99 100 100 99 98 97 96 93 84 70 52 34 20 12 7 3 2 2 2 1 1 0 0 0 0 0 0 0
0 0 0 0 0 0 0 0 0 0 0 0 0 0 11 43 81 97 98 97 96 97 99 99 98 97 96 93 84 69 51 34 20 11 5 2 0 0 0 0 0 0 0 0 0 0 0 0 0
0 0 0 0 0 0 0 0 0 0 0 0 0 0 6 31 70 95 98 96 95 96 97 97 97 97 95 88 75 59 43 29 18 9 3 1 0 0 0 0 0 0 0 0 0 0 0 0 0
0 0 0 0 0 0 0 0 0 0 0 0 0 0 2 21 60 91 99 97 96 96 96 97 96 95 92 84 72 58 43 29 16 7 2 0 0 0 0 0 0 0 0 0 0 0 0 0 0
0 0 0 0 0 0 0 0 0 0 0 0 0 0 2 20 58 90 99 98 95 93 91 88 84 79 73 64 54 42 30 20 10 3 0 0 0 0 0 0 0 0 0 0 0 0 0 0 0
0 0 0 0 0 0 0 0 0 0 0 0 0 3 12 34 68 93 99 96 88 80 72 63 53 44 36 29 22 15 10 6 3 0 0 0 0 0 0 0 0 0 0 0 0 0 0 0 0
0 0 0 0 0 0 0 0 0 0 0 0 3 13 35 62 85 95 92 81 67 52 41 31 20 12 8 5 3 1 1 1 0 0 0 0 0 0 0 0 0 0 0 0 0 0 0 0 0
0 0 0 0 0 0 0 0 0 0 0 2 10 33 64 86 92 85 68 50 34 22 13 8 3 1 0 0 0 0 0 0 0 0 0 0 0 0 0 0 0 0 0 0 0 0 0 0 0
0 0 0 0 0 0 0 0 0 0 0 3 19 52 82 88 76 56 33 17 8 4 1 0 0 0 0 0 0 0 0 0 0 0 0 0 0 0 0 0 0 0 0 0 0 0 0 0 0
0 0 0 0 0 0 0 0 0 0 0 4 26 65 84 70 47 24 8 2 0 0 0 0 0 0 0 0 0 0 0 0 0 0 0 0 0 0 0 0 0 0 0 0 0 0 0 0 0
0 0 0 0 0 0 0 0 0 0 0 4 32 72 82 57 26 8 1 0 0 0 0 0 0 0 0 0 0 0 0 0 0 0 0 0 0 0 0 0 0 0 0 0 0 0 0 0 0

GEFSSGP_con_prob3kmehi_018.txt.gz
EHI
0 0 0 0 0 0 0 0 0 0 0 0 2 7 12 11 5 2 1 1 5 7 22 57 85 90 86 80 75 66 50 33 20 12 7 2 1 2 2 1 0 0 0 0 0 0 0 0 0
0 0 0 0 0 0 0 0 0 0 0 0 3 7 10 10 8 5 1 1 3 6 22 57 87 90 80 67 57 48 36 23 14 9 5 1 0 1 1 0 0 0 0 0 0 0 0 0 0
0 0 0 0 0 0 0 0 0 0 0 0 3 5 6 13 21 14 3 0 1 4 23 62 88 86 67 44 31 24 18 11 7 5 3 1 0 0 0 0 0 0 0 0 0 0 0 0 0
0 0 0 0 0 0 0 0 0 0 0 4 8 8 5 23 46 38 13 1 0 2 20 54 77 71 48 27 14 9 6 4 3 2 2 1 0 0 0 0 0 0 0 0 0 0 0 0 0
0 0 0 0 0 0 0 0 0 0 3 14 24 18 10 32 68 65 29 7 2 2 11 32 50 46 29 15 6 3 2 1 1 1 1 0 0 0 1 1 0 0 0 0 0 0 0 0 0
0 0 0 0 0 0 0 0 0 1 6 21 33 26 16 38 76 80 50 22 7 3 6 16 25 22 12 6 3 2 1 0 0 0 0 0 0 1 2 2 1 0 0 0 0 0 0 0 0
0 0 0 0 0 0 0 0 0 0 5 17 30 28 19 34 69 87 73 44 20 8 8 11 11 8 4 2 2 2 1 0 0 0 0 0 1 2 3 3 2 1 0 0 0 0 0 0 0
0 0 0 0 0 0 0 0 0 1 4 12 22 23 17 28 60 88 91 68 36 14 10 10 6 2 1 0 1 1 0 0 0 0 0 0 1 2 2 3 2 1 0 0 0 0 0 0 0
0 0 0 0 0 0 0 0 1 3 7 15 24 25 24 38 66 91 97 82 54 28 14 9 5 1 0 0 0 0 0 0 0 0 0 0 0 1 1 1 1 1 0 0 0 0 0 0 0
0 0 0 0 0 0 0 0 1 5 15 29 42 46 48 58 77 93 97 87 67 44 23 11 6 2 0 0 0 0 0 0 0 0 0 0 0 0 0 0 0 0 0 0 0 0 0 0 0
0 0 0 0 0 0 0 0 1 7 22 43 62 70 71 74 83 92 95 87 72 54 36 22 13 5 1 0 0 0 0 0 0 0 0 0 0 0 0 0 0 0 0 0 0 0 0 0 0
0 0 0 0 0 0 0 0 1 7 26 52 71 77 77 79 84 90 91 86 77 68 58 43 27 11 3 1 0 0 0 0 0 0 0 0 0 0 0 0 0 0 0 0 0 0 0 0 0
0 0 0 0 0 0 0 0 0 7 30 56 71 71 70 73 80 86 88 85 83 83 79 65 44 22 8 4 2 0 0 0 0 0 0 0 0 0 0 0 0 0 0 0 0 0 0 0 0
0 0 0 0 0 0 0 0 0 8 30 54 62 58 55 62 72 82 85 84 83 85 86 77 59 36 21 14 10 6 3 1 1 0 0 0 0 0 0 0 0 0 0 0 0 0 0 0 0
0 0 0 0 0 0 0 0 0 7 24 42 48 43 41 48 61 73 79 81 79 79 83 83 71 52 35 25 23 22 18 11 5 1 1 1 1 1 1 0 0 0 0 0 0 0 0 0 0
0 0 0 0 0 0 0 0 0 4 15 26 31 31 31 35 46 62 73 80 78 77 83 89 84 68 47 33 34 41 41 28 13 3 1 2 2 1 1 0 0 0 0 0 0 0 0 0 0
0 0 0 0 0 0 0 0 0 2 5 10 17 23 25 26 36 53 70 78 78 79 87 94 94 82 63 50 48 51 48 34 16 5 1 1 1 1 0 0 0 0 0 0 0 0 0 0 0
0 0 0 0 0 0 0 0 0 0 1 3 9 17 21 23 31 50 67 75 77 80 88 95 96 91 82 74 65 52 38 24 11 3 0 0 0 0 0 0 0 0 0 0 0 0 0 0 0
0 0 0 0 0 0 0 0 0 0 0 1 6 13 20 25 37 57 72 77 77 81 87 92 95 95 91 85 71 49 29 14 4 1 0 0 0 0 0 0 0 0 0 0 0 0 0 0 0
0 0 0 0 0 0 0 0 0 0 0 1 4 11 22 37 56 74 86 86 83 83 85 89 94 95 92 82 62 39 19 7 1 0 0 0 0 0 0 0 0 0 0 0 0 0 0 0 0
0 0 0 0 0 0 0 0 0 0 0 1 3 12 29 53 75 90 96 95 91 87 87 90 94 93 85 70 47 23 8 2 0 0 0 0 0 0 0 0 0 0 0 0 0 0 0 0 0
0 0 0 0 0 0 0 0 0 0 0 0 2 12 34 62 85 95 98 97 95 93 93 93 93 86 71 51 30 12 3 0 0 0 0 0 0 0 0 0 0 0 0 0 0 0 0 0 0
0 0 0 0 0 0 0 0 0 0 0 0 1 8 29 61 87 96 97 97 96 96 94 90 83 68 46 26 13 5 1 0 0 0 0 0 0 0 0 0 0 0 0 0 0 0 0 0 0
0 0 0 0 0 0 0 0 0 0 0 0 1 6 23 56 85 96 96 95 94 91 82 70 57 38 20 8 3 1 0 0 0 0 0 0 0 0 0 0 0 0 0 0 0 0 0 0 0
0 0 0 0 0 0 0 0 0 2 5 9 13 18 33 61 87 95 93 91 86 73 55 37 24 13 4 1 0 0 0 0 0 0 0 0 0 0 0 0 0 0 0 0 0 0 0 0 0
0 0 0 0 0 0 0 0 3 11 25 38 46 50 61 77 89 92 88 79 64 43 23 11 6 2 0 0 0 0 0 0 0 0 0 0 0 0 0 0 0 0 0 0 0 0 0 0 0
0 0 0 0 0 0 0 0 4 20 43 66 78 81 83 83 79 73 65 49 30 15 5 1 1 0 0 0 0 0 0 0 0 0 0 0 0 0 0 0 0 0 0 0 0 0 0 0 0
0 0 0 0 0 0 0 0 3 14 38 67 81 79 72 61 48 37 26 15 6 2 0 0 0 0 0 0 0 0 0 0 0 0 0 0 0 0 0 0 0 0 0 0 0 0 0 0 0
0 0 0 0 0 0 0 2 5 10 25 47 57 50 36 25 17 9 4 1 0 0 0 0 0 0 0 0 0 0 0 0 0 0 0 0 0 0 0 0 0 0 0 0 0 0 0 0 0
0 0 0 0 0 0 0 3 10 15 21 33 36 26 13 5 3 1 0 0 0 0 0 0 0 0 0 0 0 0 0 0 0 0 0 0 0 0 0 0 0 0 0 0 0 0 0 0 0

GEFSSGP_con_prob3kmehi_024.txt.gz
EHI
0 0 0 0 0 0 0 0 0 0 0 0 1 0 0 0 0 0 0 0 4 9 14 28 54 77 85 77 65 60 59 59 65 72 74 74 71 62 43 22 9 3 1 0 0 0 0 0 0
0 0 0 0 0 0 0 0 0 0 0 0 1 0 0 0 0 0 0 2 7 12 14 30 61 83 89 84 75 67 58 52 51 52 51 50 47 39 25 12 4 1 0 0 0 0 0 0 0
0 0 0 0 0 0 0 0 0 0 0 0 1 1 0 0 1 0 1 5 13 14 12 32 66 85 90 89 82 71 55 39 30 25 20 18 17 13 7 2 0 0 0 0 0 0 0 0 0
0 0 0 0 0 0 0 0 0 0 0 0 1 2 1 0 0 1 3 9 15 13 10 29 62 80 84 84 79 66 47 29 17 10 4 2 2 2 1 0 0 0 0 0 0 0 0 1 1
0 0 0 0 0 0 0 0 0 0 0 2 5 4 1 0 0 2 5 11 16 13 9 22 49 67 70 69 63 52 36 21 12 5 2 0 0 0 0 0 0 0 0 0 0 0 1 2 2
0 0 0 0 0 0 0 0 0 0 0 5 10 7 1 0 0 2 5 9 12 13 10 15 30 41 46 45 39 32 21 12 6 3 1 0 0 0 0 0 0 0 0 0 0 0 1 2 3
0 0 0 0 0 0 0 0 0 0 1 9 15 9 1 0 0 1 3 4 7 9 9 10 12 17 20 21 18 14 8 3 1 1 1 0 0 0 0 0 0 0 0 0 0 1 1 1 1
0 0 0 0 0 0 0 0 0 0 4 11 14 7 2 2 3 2 2 1 2 5 7 7 7 8 8 7 5 4 3 2 1 0 0 0 0 0 0 0 0 0 0 0 0 0 0 0 0
0 0 0 0 0 0 0 0 0 2 8 13 9 6 12 19 18 12 5 2 2 5 6 7 8 9 7 3 1 2 4 4 2 0 0 0 0 0 0 0 0 0 0 0 0 0 0 0 0
0 0 0 0 0 0 0 0 0 3 9 11 12 23 43 51 42 27 14 5 3 6 7 8 10 11 8 5 3 3 4 4 2 0 0 0 0 0 0 0 0 0 0 0 0 1 0 0 0
0 0 0 0 0 0 0 0 0 2 4 8 24 56 79 79 64 45 25 9 4 5 6 8 11 11 9 6 5 4 3 2 1 0 0 0 0 0 0 0 0 0 0 0 0 0 0 0 0
0 0 0 0 0 0 0 0 0 0 1 8 38 78 96 91 77 56 32 13 5 4 5 7 9 10 9 8 8 7 4 2 1 0 0 0 0 0 0 0 0 0 0 0 0 0 0 0 0
0 0 0 0 0 0 0 0 0 0 1 15 51 87 98 94 83 62 38 22 11 5 4 6 8 10 11 11 11 9 6 3 1 0 0 0 0 0 0 0 0 0 0 0 0 0 0 0 0
0 0 0 0 0 0 0 0 0 0 3 23 61 90 97 94 87 71 53 38 21 8 5 8 11 12 12 12 10 8 5 2 0 0 0 0 0 0 0 0 0 0 0 0 0 0 0 0 0
0 0 0 0 0 0 0 0 0 0 5 23 55 83 93 94 91 82 71 56 35 15 8 11 15 16 14 11 7 4 2 1 0 0 0 0 0 0 0 0 0 0 0 0 0 0 0 0 0
0 0 0 0 0 0 0 0 0 1 4 16 38 64 82 88 87 83 76 67 52 33 20 19 24 25 21 15 8 3 1 0 0 0 0 0 0 0 0 0 0 0 0 0 0 0 0 0 0
0 0 0 0 0 0 0 0 0 1 3 9 23 43 62 74 77 75 73 71 68 59 47 41 42 42 36 25 13 6 2 1 0 0 0 0 0 0 0 0 0 0 0 0 0 0 0 0 0
0 0 0 0 0 0 0 0 0 1 2 5 13 26 42 56 63 66 66 69 75 76 71 66 65 64 56 41 24 13 5 1 0 0 0 0 0 0 0 0 0 0 0 0 0 0 0 0 0
0 0 0 0 0 0 0 0 0 0 1 3 7 17 29 39 46 49 51 58 70 78 81 80 79 79 74 58 36 17 6 1 0 0 0 0 0 0 0 0 0 0 0 0 0 0 0 0 0
0 0 0 0 0 0 0 0 0 0 0 1 3 9 17 23 26 29 36 50 64 75 82 84 84 83 77 60 34 12 3 0 0 0 0 0 0 0 0 0 0 0 0 0 0 0 0 0 0
0 0 0 0 0 0 0 0 0 0 0 0 1 3 5 8 12 18 29 45 60 72 81 84 82 76 62 42 20 5 1 0 0 0 0 0 0 0 0 0 0 0 0 0 0 0 0 0 0
0 0 0 0 0 0 0 0 0 0 0 0 0 0 0 1 4 11 22 36 53 68 79 81 75 60 40 22 10 2 0 0 0 0 0 0 0 0 0 0 0 0 0 0 0 0 0 0 0
0 0 0 0 0 0 0 0 0 0 0 0 0 0 0 0 2 7 18 32 48 63 72 70 57 39 22 10 4 1 0 0 0 0 0 0 0 0 0 0 0 0 0 0 0 0 0 0 0
0 0 0 0 0 0 0 0 0 0 0 0 0 0 0 1 5 13 24 36 47 55 56 48 32 18 8 4 1 0 0 0 0 0 0 0 0 0 0 0 0 0 0 0 0 0 0 0 0
0 0 0 0 0 0 0 0 0 0 0 0 0 0 1 3 11 21 28 33 37 37 32 23 13 5 2 1 0 0 0 0 0 0 0 0 0 0 0 0 0 0 0 0 0 0 0 0 0
0 0 0 0 0 0 0 0 1 2 3 3 3 2 2 5 12 17 17 16 16 15 11 6 3 1 0 0 0 0 0 0 0 0 0 0 0 0 0 0 0 0 0 0 0 0 0 0 0
0 0 0 0 0 0 0 0 2 6 8 8 6 4 2 4 7 7 5 3 3 2 1 1 0 0 0 0 0 0 0 0 0 0 0 0 0 0 0 0 0 0 0 0 0 0 0 0 0
0 0 0 0 0 0 0 0 2 7 11 11 7 3 1 1 2 2 1 0 0 0 0 0 0 0 0 0 0 0 0 0 0 0 0 0 0 0 0 0 0 0 0 0 0 0 0 0 0
0 0 0 0 0 0 0 0 2 6 11 11 7 3 0 0 0 0 0 0 0 0 0 0 0 0 0 0 0 0 0 0 0 0 0 0 0 0 0 0 0 0 0 0 0 0 0 0 0
0 0 0 0 0 0 0 0 2 7 12 12 9 3 0 0 0 0 0 0 0 0 0 0 0 0 0 0 0 0 0 0 0 0 0 0 0 0 0 0 0 0 0 0 0 0 0 0 0

GEFSSGP_con_prob3kmehi_030.txt.gz
EHI
0 0 0 0 0 0 0 0 0 0 0 0 0 0 0 0 0 0 0 0 3 10 13 7 1 1 2 5 16 42 72 89 94 95 92 85 76 68 60 50 44 37 26 14 7 2 0 0 0
0 0 0 0 0 0 0 0 0 0 0 0 0 0 0 0 0 0 0 0 3 8 12 9 5 2 1 3 15 43 73 90 95 97 93 86 76 63 48 37 29 22 14 8 3 1 0 0 0
0 0 0 0 0 0 0 0 0 0 0 0 0 0 0 0 0 1 0 0 2 5 10 17 15 7 3 2 10 34 63 81 89 94 90 81 69 49 29 17 10 6 3 2 1 0 0 0 0
0 0 0 0 0 0 0 0 0 0 0 0 0 0 0 0 0 1 1 0 1 2 8 22 28 19 9 4 5 17 40 60 74 82 79 68 53 33 15 5 1 0 0 0 0 0 0 0 0
0 0 0 0 0 0 0 0 0 0 0 0 0 0 0 0 2 4 4 2 0 0 6 22 34 27 14 7 5 9 19 34 50 60 58 49 35 19 6 1 0 0 0 0 0 0 0 0 0
0 0 0 0 0 0 0 0 0 0 0 0 0 0 0 1 5 7 6 3 1 0 5 18 25 21 14 11 10 10 10 15 24 31 31 26 17 8 2 0 0 0 0 0 0 0 0 0 0
0 0 0 0 0 0 0 0 0 0 0 0 0 0 1 5 10 11 7 3 1 0 3 8 11 10 9 11 12 11 8 7 8 10 10 8 4 2 0 0 0 0 0 0 0 0 0 0 0
0 0 0 0 0 0 0 0 0 0 0 0 0 0 7 18 24 19 11 4 1 1 1 2 3 4 5 6 8 7 4 3 3 3 2 1 0 0 0 0 0 0 0 0 0 0 0 0 0
0 0 0 0 0 0 0 0 0 0 0 0 0 2 16 40 47 36 23 13 11 8 4 1 2 3 3 3 3 2 1 0 0 0 0 0 0 0 2 4 3 0 0 0 0 0 0 0 0
0 0 0 0 0 0 0 0 0 0 0 0 1 7 29 58 66 52 36 27 24 18 9 2 1 2 1 1 2 1 0 0 0 0 1 1 0 0 3 7 5 1 0 0 0 0 0 0 0
0 0 0 0 0 0 0 0 0 0 0 0 2 14 41 66 71 57 39 29 24 18 10 3 1 1 0 0 0 0 0 0 1 2 2 2 2 1 2 4 3 0 0 0 0 0 0 0 0
0 0 0 0 0 0 0 0 0 0 0 0 1 15 42 60 61 50 34 22 16 11 8 4 4 5 4 2 0 0 0 0 2 5 6 4 3 2 0 0 1 1 0 0 0 0 0 0 0
0 0 0 0 0 0 0 0 0 0 0 0 0 9 28 43 47 45 36 26 20 16 10 8 12 18 16 8 2 0 0 0 3 7 8 6 4 3 2 2 2 2 1 0 0 0 0 0 0
0 0 0 0 0 0 0 0 0 0 0 0 0 3 12 24 36 48 52 45 38 32 24 19 23 32 30 17 5 1 1 1 3 6 8 7 6 5 4 3 3 3 2 1 0 0 0 0 0
0 0 0 0 0 0 0 0 0 0 0 0 0 0 3 10 25 47 64 64 57 53 47 37 34 39 41 29 14 6 3 3 5 7 9 9 8 9 11 11 10 9 5 1 1 0 0 0 0
0 0 0 0 0 0 0 0 0 0 0 0 0 0 0 3 14 31 52 66 70 70 69 60 49 51 56 49 32 18 12 12 14 16 19 19 17 20 27 29 26 18 8 3 2 0 0 0 0
0 0 0 0 0 0 0 0 0 0 0 0 0 0 0 1 6 14 29 54 74 83 85 79 73 73 75 70 57 43 36 33 32 31 33 34 32 34 39 39 32 20 10 5 2 0 0 0 0
0 0 0 0 0 0 0 0 0 0 0 0 0 0 0 0 2 6 17 41 70 87 92 92 90 90 90 87 79 71 63 52 43 38 36 36 36 35 34 30 22 12 6 3 1 0 0 0 0
0 0 0 0 0 0 0 0 0 0 0 0 1 1 1 1 2 5 14 34 62 83 92 95 97 97 97 95 91 82 66 47 33 25 21 20 21 21 19 15 9 4 2 2 1 0 0 0 0
0 0 0 0 0 0 0 0 0 0 1 2 5 6 6 7 7 8 15 31 52 73 85 92 97 98 97 93 85 68 44 25 13 8 6 6 7 8 7 5 3 1 1 1 0 0 0 0 0
0 0 0 0 0 0 0 0 0 0 2 7 13 18 19 18 15 12 16 28 43 59 75 86 93 94 92 85 70 47 25 10 3 1 1 0 1 2 1 1 1 0 0 0 0 0 0 0 0
0 0 0 0 0 0 0 0 0 0 3 12 25 34 37 35 29 23 25 33 45 57 70 83 89 87 84 75 57 36 19 7 2 0 0 0 0 0 0 0 0 0 0 0 0 0 0 0 0
0 0 0 0 0 0 0 0 0 1 5 17 32 45 52 52 47 43 44 52 62 69 75 81 82 78 72 59 42 26 13 5 2 0 0 0 0 0 0 0 0 0 0 0 0 0 0 0 0
0 0 0 0 0 0 0 0 1 3 8 15 25 38 48 51 50 50 54 62 71 74 72 70 66 58 48 35 22 11 5 2 1 0 0 0 0 0 0 0 0 0 0 0 0 0 0 0 0
0 0 0 0 0 0 0 0 2 5 7 8 11 18 27 33 36 38 43 49 54 55 52 49 40 28 19 13 7 3 1 1 0 0 0 0 0 0 0 0 0 0 0 0 0 0 0 0 0
0 0 0 0 0 0 0 1 3 4 3 2 3 5 10 16 20 22 23 25 26 26 25 22 15 8 3 2 2 1 0 0 0 0 0 0 0 0 0 0 0 0 0 0 0 0 0 0 0
0 0 0 0 0 0 0 1 2 2 2 2 2 2 4 7 9 9 9 9 8 7 7 5 3 1 0 1 1 0 0 0 0 0 0 0 0 0 0 0 0 0 0 0 0 0 0 0 0
0 0 0 0 0 0 0 0 2 4 5 5 3 2 2 1 1 1 1 1 1 1 1 0 0 0 0 0 0 0 0 0 0 0 0 0 0 0 0 0 0 0 0 0 0 0 0 0 0
0 0 0 0 0 0 0 0 4 10 14 11 5 1 0 0 0 0 0 0 0 0 0 0 0 0 0 0 0 0 0 0 0 0 0 0 0 0 0 0 0 0 0 0 0 0 0 0 0
0 0 0 0 0 0 0 1 6 15 20 16 6 1 0 0 0 0 0 0 0 0 0 0 0 0 0 0 0 0 0 0 0 0 0 0 0 0 0 0 0 0 0 0 0 0 0 0 0

GEFSSGP_con_prob3kmehi_036.txt.gz
EHI
0 0 0 0 0 0 0 0 0 0 0 0 0 0 0 0 1 2 4 27 65 70 59 66 71 53 25 6 0 0 0 0 0 0 1 1 3 10 13 9 4 1 0 0 0 0 0 0 0
0 0 0 0 0 0 0 0 0 0 0 0 0 0 0 0 1 2 7 31 57 53 41 53 65 55 30 9 1 0 0 0 1 2 4 5 8 14 16 11 4 1 0 0 0 0 0 0 0
0 0 0 0 0 0 0 0 0 0 0 0 0 0 0 0 1 3 10 29 42 33 28 47 64 59 36 14 3 1 2 4 9 15 18 20 22 23 20 12 4 1 1 0 0 0 0 0 0
0 0 0 0 0 0 0 0 0 0 0 0 0 0 0 0 2 4 9 19 28 29 30 43 61 61 38 15 5 3 5 12 24 36 42 43 39 30 21 10 3 0 0 0 0 0 0 0 0
0 0 0 0 0 0 0 0 0 0 0 0 0 1 1 1 2 4 5 10 26 41 39 39 52 53 32 13 4 3 7 18 36 53 61 60 48 31 16 6 1 0 0 0 0 0 0 0 0
0 0 0 0 0 0 0 0 0 0 0 0 0 1 1 0 1 2 2 6 30 58 52 36 38 36 20 8 3 3 6 18 37 55 63 59 43 24 9 2 0 0 0 0 0 0 0 0 0
0 0 0 0 0 0 0 0 0 0 0 0 0 1 2 3 1 0 0 5 31 64 58 29 20 18 10 5 4 4 6 16 31 42 44 38 26 13 4 0 0 0 0 0 0 0 0 0 0
0 0 0 0 0 0 0 0 0 0 0 0 0 1 6 8 4 1 1 4 28 63 59 24 7 7 4 2 3 5 7 12 19 21 18 13 8 3 1 5 8 6 2 1 0 0 0 0 0
0 0 0 0 0 0 0 0 0 0 0 0 0 3 10 10 5 2 3 5 28 65 65 29 6 3 1 1 3 4 4 5 6 5 3 1 0 0 4 20 33 23 8 3 1 0 0 0 0
0 0 0 0 0 0 0 0 0 0 0 0 1 6 11 8 4 4 5 11 34 67 71 43 19 8 3 5 8 5 1 1 1 1 2 1 0 4 18 43 53 36 15 5 1 0 0 0 0
0 0 0 0 0 0 0 0 0 0 0 0 3 10 13 10 7 5 6 17 41 62 68 61 46 26 14 18 20 8 3 4 3 5 8 5 2 11 33 52 49 30 11 3 1 1 0 0 0
0 0 0 0 0 0 0 0 0 0 0 0 4 12 16 13 9 5 8 23 47 57 58 67 72 53 36 40 36 16 9 13 11 14 19 14 8 15 31 42 34 17 7 4 3 2 2 1 0
0 0 0 0 0 0 0 0 0 0 0 0 4 12 14 11 7 4 10 31 57 65 60 70 84 76 63 64 57 31 22 28 31 35 39 30 21 23 33 42 39 27 22 18 12 9 8 4 2
0 0 0 0 0 0 0 0 0 0 0 0 3 7 8 6 5 5 16 42 71 82 79 81 91 91 85 83 76 54 41 46 53 61 64 54 46 49 56 62 59 53 49 44 31 22 16 10 7
0 0 0 0 0 0 0 0 0 0 0 0 1 2 3 3 4 8 25 55 83 95 95 94 97 98 97 93 88 73 58 60 71 79 82 77 74 78 81 79 73 65 62 60 49 35 24 17 14
0 0 0 0 0 0 0 0 0 0 0 0 0 1 3 3 3 10 33 66 91 99 99 99 99 100 99 98 94 81 71 74 83 86 86 84 84 86 86 81 73 64 59 55 46 35 27 21 20
0 0 0 0 0 0 0 0 0 0 0 0 1 1 3 4 4 11 38 72 93 99 100 100 100 100 100 100 96 86 82 85 85 81 77 73 71 74 76 73 67 59 51 40 29 25 22 18 17
0 0 0 0 0 0 0 0 0 0 1 1 2 3 5 7 8 15 40 73 92 98 100 100 100 100 100 100 97 93 89 84 76 68 61 54 50 54 59 58 53 45 37 26 17 14 13 10 9
0 0 0 0 0 0 0 0 0 1 2 3 4 6 9 11 15 23 43 70 91 98 100 100 100 100 100 100 99 96 88 75 61 50 42 35 31 34 39 39 34 27 20 14 9 6 5 4 3
0 0 0 0 0 0 0 0 0 1 4 5 6 9 13 19 26 35 49 70 89 98 100 100 100 100 100 99 96 89 76 61 45 34 26 20 18 18 19 20 18 13 9 5 3 1 1 1 0
0 0 0 0 0 0 0 0 1 3 5 7 10 16 23 31 41 50 60 73 87 96 99 100 100 99 98 94 87 76 61 45 32 23 15 11 9 6 6 6 6 4 2 1 0 0 0 0 0
0 0 0 0 0 0 0 0 1 3 6 10 20 33 43 51 59 67 74 81 87 93 97 99 98 96 93 88 80 67 52 37 25 15 9 6 3 1 1 1 1 1 0 0 0 0 0 0 0
0 0 0 0 0 0 0 0 1 3 9 22 40 56 65 69 71 75 81 85 87 89 92 94 92 89 85 81 73 59 44 29 17 9 5 2 1 0 0 0 0 0 0 0 0 0 0 0 0
0 0 0 0 0 0 0 0 5 17 32 49 64 74 77 74 68 69 73 77 79 79 81 81 78 74 69 64 56 43 28 16 9 4 2 1 0 0 0 0 0 0 0 0 0 0 0 0 0
0 0 0 0 0 0 0 1 16 44 67 76 78 75 69 61 54 52 53 56 59 60 60 59 55 50 44 37 30 23 14 7 4 1 0 0 0 0 0 0 0 0 0 0 0 0 0 0 0
0 0 0 0 0 0 1 9 36 69 85 81 70 59 49 40 35 33 31 32 34 36 36 35 32 28 22 16 11 9 6 4 2 1 0 0 0 0 0 0 0 0 0 0 0 0 0 0 0
0 0 0 0 0 0 2 19 53 76 79 69 54 39 27 19 16 15 15 14 15 16 16 16 15 14 11 6 3 3 3 3 2 1 0 0 0 0 0 0 0 0 0 0 0 0 0 0 0
0 0 0 0 0 0 3 19 49 70 69 57 40 23 11 6 4 5 5 5 5 5 4 4 4 5 4 3 1 1 1 1 1 0 0 0 0 0 0 0 0 0 0 0 0 0 0 0 0
0 0 0 0 0 0 2 13 39 63 63 46 27 11 3 1 1 1 1 1 1 1 0 0 0 1 1 1 0 0 0 0 0 0 0 0 0 0 0 0 0 0 0 0 0 0 0 0 0
0 0 0 0 0 0 0 11 40 64 61 39 17 4 0 0 0 0 0 0 0 0 0 0 0 0 0 0 0 0 0 0 0 0 0 0 0 0 0 0 0 0 0 0 0 0 0 0 0

GEFSSGP_con_prob3kmehi_042.txt.gz
EHI
0 0 0 0 0 0 0 0 0 0 0 0 1 1 2 2 2 1 0 9 32 50 48 57 77 89 87 75 56 37 25 22 24 30 42 50 54 53 46 35 23 13 4 1 0 0 0 0 0
0 0 0 0 0 0 0 0 0 0 0 1 2 3 4 4 3 2 2 15 41 52 46 55 76 86 83 68 48 29 18 14 15 19 27 34 36 33 28 20 13 7 2 0 0 0 0 0 0
0 0 0 0 0 0 0 0 0 0 0 1 2 3 4 4 4 3 6 23 43 47 44 56 75 83 77 60 37 18 8 6 7 8 11 15 16 13 9 6 3 2 0 0 0 0 0 0 0
0 0 0 0 0 0 0 0 0 0 0 0 1 1 1 7 14 15 13 21 34 38 41 55 72 79 72 54 30 12 5 4 4 4 5 7 7 5 2 1 1 0 0 0 0 0 0 0 0
0 0 0 0 0 0 0 0 0 0 1 1 1 1 1 15 35 31 14 13 25 35 40 49 63 71 67 49 27 13 7 4 3 3 4 5 5 4 2 0 0 0 0 0 0 0 0 0 0
0 0 0 0 0 0 0 0 0 1 2 3 4 3 3 21 43 34 12 9 21 35 39 40 47 57 57 44 26 14 8 6 4 5 6 7 7 5 2 0 0 0 0 0 0 0 0 0 0
0 0 0 0 0 0 0 0 0 1 2 2 3 3 3 17 32 30 17 12 19 32 38 33 30 35 39 34 23 14 9 7 7 9 12 12 9 6 3 1 0 0 0 0 0 0 0 0 0
0 0 0 0 0 0 0 0 0 1 1 1 1 1 2 11 29 40 33 21 17 23 30 29 23 21 23 23 20 14 10 10 11 15 17 15 9 4 3 2 2 2 1 0 0 0 0 0 0
0 0 0 0 0 0 0 0 0 0 0 0 1 1 1 12 37 58 57 39 22 15 18 22 23 21 20 20 17 12 8 10 11 12 14 11 4 1 1 1 3 3 1 0 0 0 1 1 0
0 0 0 0 0 0 0 0 0 0 0 1 2 3 4 15 39 64 73 61 36 16 9 13 21 24 22 19 14 7 3 4 4 5 5 4 1 0 0 1 2 2 1 0 0 0 1 1 1
0 0 0 0 0 0 0 0 0 0 0 1 3 5 7 13 29 53 72 72 50 24 9 9 16 21 19 16 11 4 0 0 0 0 0 0 0 0 0 0 1 1 0 0 0 0 1 1 0
0 0 0 0 0 0 0 0 0 0 0 1 3 6 7 8 16 35 58 69 57 33 15 11 14 16 14 11 7 2 0 0 0 0 0 0 0 0 0 1 1 0 0 0 0 0 0 0 0
0 0 0 0 0 0 0 0 0 0 2 3 4 4 5 4 7 19 41 61 62 43 23 14 13 12 9 6 3 1 0 0 0 0 0 0 0 0 0 1 1 1 1 0 0 0 0 0 0
0 0 0 0 0 0 0 0 0 1 3 4 4 3 4 5 6 11 27 50 62 55 35 21 15 13 11 8 3 0 0 0 0 0 0 0 0 0 1 1 1 0 0 0 0 0 0 0 0
0 0 0 0 0 0 0 0 0 1 2 3 3 3 5 7 6 8 18 37 55 60 50 37 29 27 27 22 12 6 4 2 1 1 2 3 3 3 2 1 0 0 0 0 0 0 0 0 0
0 0 0 0 0 0 0 0 0 0 1 2 3 4 7 7 5 6 11 24 42 56 59 56 52 52 55 51 36 24 18 13 9 9 10 11 10 9 5 2 0 0 0 0 0 0 0 0 0
0 0 0 0 0 0 0 0 0 1 2 3 3 6 10 10 8 7 10 18 34 50 60 67 71 76 80 78 67 53 43 35 29 27 23 19 16 13 8 3 0 0 0 0 0 0 0 0 0
0 0 0 0 0 0 0 0 1 2 3 3 5 10 18 20 17 14 14 20 33 48 59 69 79 87 91 91 85 75 62 50 42 37 29 21 16 13 8 3 1 0 0 0 0 0 0 0 0
0 0 0 0 0 0 0 1 2 3 5 7 11 18 27 30 27 24 23 25 35 48 58 68 79 87 91 91 85 74 60 44 34 27 20 15 11 9 6 3 1 0 0 0 0 0 0 0 0
0 0 0 0 0 0 0 1 3 6 11 17 21 28 36 39 37 35 32 32 39 49 58 68 78 86 90 85 73 57 41 28 17 11 7 6 5 4 4 2 1 0 0 0 0 0 0 0 0
0 0 0 0 0 0 0 1 5 11 21 29 35 41 47 49 46 43 41 41 47 54 61 70 78 84 85 76 61 44 30 18 9 3 1 1 1 1 1 0 0 0 0 0 0 0 0 0 0
0 0 0 0 0 0 0 1 5 14 26 36 45 53 58 59 54 51 51 52 56 60 65 73 79 80 76 67 54 42 28 15 5 1 0 0 0 0 0 0 0 0 0 0 0 0 0 0 0
0 0 0 0 0 0 0 0 3 10 22 35 46 54 59 60 57 56 56 57 59 61 66 72 75 71 64 56 47 37 23 10 2 0 0 0 0 0 0 0 0 0 0 0 0 0 0 0 0
0 0 0 0 0 0 0 0 3 7 15 28 39 45 48 49 50 50 51 53 55 56 60 63 61 57 49 40 32 23 12 4 0 0 0 0 0 0 0 0 0 0 0 0 0 0 0 0 0
0 0 0 0 0 0 0 1 5 9 14 21 28 32 34 35 37 37 39 43 44 44 47 46 41 36 29 22 15 9 4 1 0 0 0 0 0 0 0 0 0 0 0 0 0 0 0 0 0
0 0 0 0 0 0 0 2 7 12 15 17 18 19 20 22 24 24 24 26 26 26 27 27 23 19 14 9 5 2 0 0 0 0 0 0 0 0 0 0 0 0 0 0 0 0 0 0 0
0 0 0 0 0 0 0 1 5 10 14 14 11 9 7 8 10 10 9 9 9 9 10 11 10 8 6 3 1 0 0 0 0 0 0 0 0 0 0 0 0 0 0 0 0 0 0 0 0
0 0 0 0 0 0 0 0 3 8 12 11 8 4 1 1 1 1 1 1 1 1 2 3 3 2 1 0 0 0 0 0 0 0 0 0 0 0 0 0 0 0 0 0 0 0 0 0 0
0 0 0 0 0 0 0 0 3 8 10 8 4 1 0 0 0 0 0 0 0 0 0 0 0 0 0 0 0 0 0 0 0 0 0 0 0 0 0 0 0 0 0 0 0 0 0 0 0
0 0 0 0 0 0 0 0 3 6 7 4 1 0 0 0 0 0 0 0 0 0 0 0 0 0 0 0 0 0 0 0 0 0 0 0 0 0 0 0 0 0 0 0 0 0 0 0 0

GEFSSGP_con_prob3kmehi_048.txt.gz
EHI
0 0 0 0 0 0 0 0 0 0 0 0 0 0 0 0 0 0 1 10 32 45 35 26 34 52 74 91 96 98 99 99 100 99 98 98 98 97 90 78 65 52 39 26 15 6 3 2 1
0 0 0 0 0 0 0 0 0 0 0 0 0 0 0 0 0 0 2 15 39 51 38 28 37 56 76 89 95 96 96 97 99 100 99 99 98 94 84 70 56 45 35 23 12 5 2 1 0
0 0 0 0 0 0 0 0 0 0 0 0 0 0 0 0 0 1 7 26 47 51 38 31 41 60 77 87 91 92 91 93 95 97 97 96 92 84 71 55 41 32 26 18 8 2 0 0 0
0 0 0 0 0 0 0 0 0 0 0 0 0 0 0 0 0 4 16 35 48 45 33 32 43 59 73 81 83 83 81 83 86 88 87 84 76 64 50 35 23 17 15 11 4 1 0 0 0
0 0 0 0 0 0 0 0 0 0 0 0 0 0 0 0 2 9 20 33 45 45 35 33 41 52 62 67 67 66 64 65 70 72 69 62 52 38 25 16 10 6 6 4 2 0 0 0 0
0 0 0 0 0 0 0 0 0 0 0 0 0 0 0 0 3 9 16 23 37 46 40 31 31 36 42 46 48 46 43 44 47 48 43 36 26 16 9 5 2 1 1 1 1 0 0 0 0
0 0 0 0 0 0 0 0 0 0 0 0 0 0 0 0 2 8 16 23 34 43 38 26 18 16 20 25 27 27 26 26 27 24 20 15 9 5 3 1 0 0 0 0 0 0 0 0 0
0 0 0 0 0 0 0 0 0 0 0 0 0 0 0 1 6 18 30 36 36 32 26 18 11 7 7 9 12 12 14 14 13 10 7 4 2 1 1 0 0 0 0 0 0 0 0 0 0
0 0 0 0 0 0 0 0 0 0 0 0 0 1 7 12 18 30 43 44 35 21 12 10 10 9 7 4 4 6 6 6 5 3 2 1 0 0 0 0 1 1 0 0 1 2 1 0 0
0 0 0 0 0 0 0 0 0 0 0 0 0 7 23 33 27 28 34 33 27 16 7 5 9 13 12 9 6 5 3 1 0 0 0 0 0 0 0 0 1 1 0 0 2 3 2 0 0
0 0 0 0 0 0 0 0 0 0 0 0 2 17 43 47 27 14 14 15 15 13 8 5 8 14 16 15 14 10 4 0 0 0 0 0 0 0 0 0 1 1 0 0 1 1 1 0 0
0 0 0 0 0 0 0 0 0 0 0 0 4 27 53 51 26 9 4 3 5 8 7 6 9 15 17 18 22 18 7 1 0 0 0 0 0 0 0 0 0 0 0 0 0 0 0 0 0
0 0 0 0 0 0 0 0 0 0 0 0 6 28 52 51 31 14 5 1 1 4 6 7 10 14 16 19 23 20 9 2 0 0 0 0 0 0 0 0 0 0 0 0 0 0 0 0 0
0 0 0 0 0 0 0 0 0 0 0 1 7 24 42 47 36 21 11 4 2 3 5 8 11 12 14 18 20 16 9 3 1 0 0 0 0 0 0 0 0 0 0 0 0 0 0 0 0
0 0 0 0 0 0 0 0 0 0 0 1 5 15 28 34 33 26 18 10 4 2 3 7 8 9 11 14 14 11 8 4 1 0 0 0 0 0 0 0 0 0 0 0 0 0 0 0 0
0 0 0 0 0 0 0 0 0 0 0 1 3 7 12 16 21 23 22 17 10 5 3 5 7 7 8 9 8 7 6 4 1 0 0 0 0 0 0 0 0 0 0 0 0 0 0 0 0
0 0 0 0 0 0 0 1 1 1 1 1 1 2 3 5 9 15 21 25 23 15 8 8 10 10 7 6 5 3 2 2 1 0 0 0 0 0 0 0 0 0 0 0 0 0 0 0 0
0 0 0 0 0 0 0 1 2 2 2 2 2 1 1 2 5 9 18 31 37 29 20 18 20 19 14 8 5 4 2 1 0 0 0 0 0 0 0 0 0 0 0 0 0 0 0 0 0
0 0 0 0 0 0 0 1 2 3 3 4 5 4 4 6 9 11 17 30 40 40 34 31 32 33 30 23 17 14 9 3 0 0 0 1 0 0 0 0 0 0 0 0 0 0 0 0 0
0 0 0 0 0 0 0 2 5 8 10 13 16 15 13 14 16 18 21 28 37 43 44 42 44 47 47 42 34 25 15 6 2 0 0 0 0 0 0 0 0 0 0 0 0 0 0 0 0
0 0 0 0 0 0 0 2 7 12 18 25 28 25 22 21 22 24 25 29 35 41 44 47 50 53 55 51 43 31 21 12 6 2 0 0 0 0 0 0 0 0 0 0 0 0 0 0 0
0 0 0 0 0 0 0 1 4 9 17 26 27 23 20 22 25 26 28 31 33 35 38 43 48 49 48 45 39 34 26 17 9 4 1 0 0 0 0 0 0 0 0 0 0 0 0 0 0
0 0 0 0 0 0 0 0 2 7 14 19 18 13 13 17 21 25 28 29 29 29 32 36 40 38 35 33 32 29 22 12 5 2 0 0 0 0 0 0 0 0 0 0 0 0 0 0 0
0 0 0 0 0 0 0 0 3 8 12 12 10 8 8 10 14 18 21 23 24 26 28 30 29 25 23 23 22 19 12 5 1 0 0 0 0 0 0 0 0 0 0 0 0 0 0 0 0
0 0 0 0 0 0 0 1 4 7 9 7 4 3 4 6 7 8 11 13 16 19 21 21 19 15 13 12 11 9 5 1 0 0 0 0 0 0 0 0 0 0 0 0 0 0 0 0 0
0 0 0 0 0 0 0 2 4 4 4 4 2 1 1 3 3 3 3 4 6 7 9 10 10 9 6 4 3 2 1 0 0 0 0 0 0 0 0 0 0 0 0 0 0 0 0 0 0
0 0 0 0 0 0 0 2 2 2 1 1 0 0 0 1 1 1 0 0 0 1 2 3 4 4 2 1 0 0 0 0 0 0 0 0 0 0 0 0 0 0 0 0 0 0 0 0 0
0 0 0 0 0 0 0 1 1 1 0 0 0 0 0 0 0 0 0 0 0 0 0 0 1 1 0 0 0 0 0 0 0 0 0 0 0 0 0 0 0 0 0 0 0 0 0 0 0
0 0 0 0 0 0 0 0 0 0 0 0 0 0 0 0 0 0 0 0 0 0 0 0 0 0 0 0 0 0 0 0 0 0 0 0 0 0 0 0 0 0 0 0 0 0 0 0 0
0 0 0 0 0 0 0 0 0 0 0 0 0 0 0 0 0 0 0 0 0 0 0 0 0 0 0 0 0 0 0 0 0 0 0 0 0 0 0 0 0 0 0 0 0 0 0 0 0

GEFSSGP_con_prob3kmehi_054.txt.gz
EHI
0 0 0 0 0 0 0 0 0 0 0 0 0 0 0 0 0 1 12 32 55 66 51 26 19 24 39 59 76 87 92 93 93 89 81 73 66 58 48 38 28 20 15 11 8 5 2 2 3
0 0 0 0 0 0 0 0 0 0 0 0 0 0 0 0 0 3 19 44 58 57 44 28 25 33 48 67 82 92 95 96 96 94 88 80 72 63 51 39 29 21 15 11 7 4 2 1 2
0 0 0 0 0 0 0 0 0 0 0 0 0 0 0 1 1 8 28 50 54 43 35 34 37 45 59 75 88 95 97 98 99 99 96 89 81 69 54 40 28 20 15 11 6 3 1 0 1
0 0 0 0 0 0 0 0 0 0 0 0 0 0 1 2 4 13 32 46 44 33 27 35 44 50 61 76 88 95 97 99 100 100 98 93 86 73 54 37 27 20 15 11 7 4 2 1 0
0 0 0 0 0 0 0 0 0 0 0 0 0 0 3 8 13 21 34 42 38 29 22 26 37 46 56 71 84 92 96 99 100 99 97 93 85 70 50 33 24 20 16 11 7 5 4 2 1
0 0 0 0 0 0 0 0 0 0 0 0 0 1 6 19 30 35 38 37 31 23 17 17 22 29 41 58 74 84 90 94 97 97 93 88 79 62 41 27 21 19 16 10 5 3 3 2 1
0 0 0 0 0 0 0 0 0 0 0 0 0 1 10 31 49 50 43 32 21 15 11 9 8 10 19 36 54 69 79 85 89 89 84 77 65 47 31 21 18 17 15 9 4 2 1 1 0
0 0 0 0 0 0 0 0 0 0 0 0 0 1 13 40 63 67 54 36 21 11 7 4 1 1 4 13 26 42 58 67 70 70 64 53 39 27 17 12 13 14 11 7 4 3 2 1 0
0 0 0 0 0 0 0 0 0 0 0 0 0 1 16 46 72 80 71 53 35 19 9 4 1 0 0 1 6 15 28 37 40 39 34 23 14 9 9 10 10 9 7 4 3 2 2 1 0
0 0 0 0 0 0 0 0 0 0 0 0 0 2 17 46 72 82 78 65 51 33 15 5 2 1 1 1 1 2 6 10 13 13 10 6 3 3 7 10 8 4 4 3 2 1 1 0 0
0 0 0 0 0 0 0 0 0 0 0 0 0 2 14 36 60 71 67 58 49 36 18 6 2 1 2 3 3 3 2 1 3 5 4 2 3 4 5 6 4 2 2 1 1 0 0 0 0
0 0 0 0 0 0 0 0 0 0 0 0 0 2 8 22 41 51 49 42 35 26 15 6 3 2 3 5 5 4 3 3 6 9 8 5 4 4 4 2 1 1 1 1 1 0 0 0 0
0 0 0 0 0 0 0 0 0 0 0 0 0 1 3 9 22 32 36 34 28 19 12 7 4 2 3 6 6 3 2 4 8 11 9 5 4 4 4 3 1 0 1 1 0 0 0 0 0
0 0 0 0 0 0 0 0 0 0 0 0 0 0 1 2 9 22 31 32 26 17 11 7 5 4 4 5 5 3 2 4 6 8 7 5 5 5 5 5 4 2 1 1 1 1 1 0 0
0 0 0 0 0 0 0 0 0 0 0 0 0 0 0 0 4 15 26 28 23 16 12 10 7 6 7 6 4 2 2 4 6 7 8 8 10 12 11 10 10 8 5 5 5 5 3 2 1
0 0 0 0 0 0 0 0 0 0 0 0 0 1 1 2 4 10 15 19 19 17 17 14 10 10 12 10 7 6 7 8 9 11 14 16 18 20 18 18 21 21 17 15 14 11 8 5 4
0 0 0 0 0 0 0 0 0 0 0 1 1 4 7 10 12 12 11 12 14 18 22 20 17 18 19 17 16 17 19 20 19 19 22 26 27 27 26 28 33 34 30 27 23 18 14 10 9
0 0 0 0 0 0 0 0 0 1 2 4 8 13 18 22 24 22 16 14 16 22 27 29 28 31 33 31 30 31 33 34 31 28 29 31 33 32 31 36 42 42 37 33 27 22 18 12 10
0 0 0 0 0 0 1 1 3 6 9 13 20 25 27 30 33 32 25 22 24 28 34 39 42 46 51 50 47 46 46 43 38 32 29 29 31 34 33 36 44 44 37 32 26 21 15 10 7
0 0 0 0 0 0 1 2 5 11 18 25 32 35 36 37 39 38 33 30 31 35 41 47 53 58 62 64 63 61 55 46 35 29 26 23 24 28 29 31 36 38 33 27 22 17 11 6 4
0 0 0 0 0 0 1 2 4 10 20 31 39 42 44 43 42 41 39 36 36 41 48 54 58 63 68 70 71 70 60 46 35 28 23 19 17 19 21 22 25 27 25 19 15 11 7 3 1
0 0 0 0 0 0 0 0 1 6 15 28 36 40 43 42 40 40 42 42 42 46 55 60 62 66 69 71 71 68 58 45 35 28 21 14 11 12 12 13 14 14 13 10 7 5 3 1 0
0 0 0 0 0 0 0 0 1 3 10 20 27 32 35 35 35 37 39 41 44 49 56 61 62 64 68 69 67 60 47 35 28 22 15 8 5 5 5 5 4 4 4 3 2 1 0 0 0
0 0 0 0 0 0 0 1 3 4 8 13 16 20 25 26 26 28 30 32 36 43 49 54 55 57 60 59 54 47 35 24 19 14 9 3 1 0 0 0 0 0 0 0 0 0 0 0 0
0 0 0 0 0 0 0 2 5 8 8 7 7 9 14 16 16 18 19 20 22 27 34 40 42 42 42 38 33 29 24 18 13 9 4 1 0 0 0 0 0 0 0 0 0 0 0 0 0
0 0 0 0 0 0 0 2 6 8 8 6 4 4 6 8 8 8 8 9 10 12 17 21 24 23 21 18 15 14 12 9 7 4 1 0 0 0 0 0 0 0 0 0 0 0 0 0 0
0 0 0 0 0 0 0 2 4 6 6 5 4 3 3 2 2 2 2 2 2 3 4 6 7 7 7 6 6 5 3 2 1 1 0 0 0 0 0 0 0 0 0 0 0 0 0 0 0
0 0 0 0 0 0 0 1 2 3 5 5 3 2 1 0 0 0 0 0 0 0 0 0 0 1 1 1 1 1 1 0 0 0 0 0 0 0 0 0 0 0 0 0 0 0 0 0 0
0 0 0 0 0 0 0 0 0 2 4 4 2 1 0 0 0 0 0 0 0 0 0 0 0 0 0 0 0 0 0 0 0 0 0 0 0 0 0 0 0 0 0 0 0 0 0 0 0
0 0 0 0 0 0 0 0 0 1 3 2 1 0 0 0 0 0 0 0 0 0 0 0 0 0 0 0 0 0 0 0 0 0 0 0 0 0 0 0 0 0 0 0 0 0 0 0 0

GEFSSGP_con_prob3kmehi_060.txt.gz
EHI
0 0 0 0 0 0 0 0 0 0 0 0 0 0 0 1 1 1 13 46 83 96 96 96 87 60 29 12 4 1 0 1 0 0 0 0 0 1 1 2 2 1 0 0 0 0 0 0 0
0 0 0 0 0 0 0 0 0 0 0 0 0 0 0 1 1 6 25 59 87 94 93 94 89 66 37 18 8 2 1 2 3 4 3 1 1 2 2 2 1 0 0 0 0 0 0 0 0
0 0 0 0 0 0 0 0 0 0 0 0 0 0 0 1 4 16 41 70 88 89 88 93 92 77 52 30 14 6 4 7 13 15 11 7 6 5 3 2 1 0 0 0 0 0 0 0 0
0 0 0 0 0 0 0 0 0 0 0 0 0 2 4 5 11 27 46 68 83 83 82 89 95 86 68 46 26 15 15 21 29 31 26 22 18 12 7 3 1 0 0 0 0 0 0 0 0
0 0 0 0 0 0 0 0 0 0 0 0 1 6 11 11 18 28 38 57 75 78 77 86 95 92 79 61 44 33 33 40 48 49 44 40 34 23 14 6 2 1 0 0 0 0 0 0 0
0 0 0 0 0 0 0 0 0 0 0 0 2 10 16 15 16 18 27 47 69 76 73 78 87 88 82 72 61 51 49 53 60 61 58 51 42 31 18 8 4 2 1 0 0 0 0 0 0
0 0 0 0 0 0 0 0 0 0 0 0 2 11 20 20 13 12 21 43 66 73 65 61 66 71 70 67 62 55 52 55 60 60 56 48 37 26 17 9 5 3 1 0 0 0 0 0 0
0 0 0 0 0 0 0 0 0 0 0 0 1 11 23 24 16 13 24 45 64 68 54 43 42 45 45 45 46 43 41 43 46 44 40 32 20 14 11 9 8 5 1 0 0 0 0 0 0
0 0 0 0 0 0 0 0 0 0 0 0 3 11 21 22 17 18 30 51 68 66 47 28 23 23 22 23 25 24 22 23 24 21 19 14 6 3 7 16 21 14 4 0 0 1 1 0 0
0 0 0 0 0 0 0 0 0 0 0 1 5 15 20 17 15 20 35 57 74 71 45 19 10 9 11 15 16 12 9 8 6 5 4 3 1 2 12 30 37 24 8 1 0 1 1 0 0
0 0 0 0 0 0 0 0 0 0 0 1 6 16 20 16 13 17 32 55 74 70 43 18 8 6 10 16 14 8 5 2 2 3 3 1 0 5 18 34 36 22 7 1 0 1 1 0 0
0 0 0 0 0 0 0 0 0 0 0 0 4 12 16 13 9 12 26 47 66 63 40 24 22 19 24 28 19 9 5 4 8 13 12 5 2 4 14 26 26 16 7 4 2 1 2 2 1
0 0 0 0 0 0 0 0 0 0 0 0 1 6 11 10 8 13 26 45 63 62 46 40 47 47 51 52 38 18 14 14 21 30 25 10 4 4 10 22 28 21 15 14 9 7 10 11 8
0 0 0 0 0 0 0 0 0 0 0 0 0 2 5 7 10 18 35 55 72 74 65 64 73 75 75 72 56 36 30 30 36 46 39 21 14 16 23 36 41 32 25 26 25 23 25 24 18
0 0 0 0 0 0 0 0 0 0 0 0 0 0 2 7 13 24 44 67 84 89 87 84 85 86 85 78 65 47 39 41 50 59 57 40 32 40 52 58 55 44 37 41 44 43 41 35 29
0 0 0 0 0 0 0 0 0 0 0 0 0 0 3 8 16 28 48 72 90 96 96 91 86 87 88 82 70 53 45 52 65 73 74 63 54 61 74 74 66 59 56 57 58 56 51 46 41
0 0 0 0 0 0 0 0 1 1 2 3 4 5 9 15 24 36 53 75 92 98 97 92 87 88 89 85 76 65 61 68 78 84 86 81 72 73 81 81 75 72 72 68 61 58 55 49 45
0 0 0 0 0 0 0 2 4 7 10 12 15 18 24 31 39 51 64 79 93 99 97 93 90 90 90 87 82 77 77 80 82 83 84 83 79 78 81 81 77 75 72 64 55 49 46 40 36
0 0 0 0 0 0 2 6 12 17 22 27 30 34 41 49 57 67 75 84 94 99 96 92 91 91 91 88 86 84 83 82 78 72 71 72 73 74 74 72 68 63 57 48 40 35 30 26 25
0 0 0 0 0 0 3 10 19 26 31 37 40 44 52 62 69 75 80 85 92 96 95 92 91 91 90 88 86 84 81 78 70 60 55 54 55 57 56 53 49 42 36 31 27 23 21 17 15
0 0 0 0 0 0 2 8 18 27 34 39 43 48 55 62 67 70 74 77 82 86 88 88 87 88 88 85 83 81 78 73 62 49 41 35 33 34 34 31 27 23 21 20 18 17 15 11 9
0 0 0 0 0 0 0 3 11 22 32 39 45 48 50 53 56 58 62 66 69 71 75 76 77 80 82 82 79 77 72 63 50 37 27 20 17 17 17 15 12 12 13 12 12 10 8 6 5
0 0 0 0 0 0 0 1 5 16 29 40 48 49 47 46 45 46 49 53 55 57 59 62 64 67 72 74 73 70 61 47 35 25 18 13 10 9 9 7 6 6 6 6 6 5 3 2 2
0 0 0 0 0 0 0 1 8 19 30 39 46 46 41 36 33 32 33 36 39 42 45 47 51 54 57 59 60 55 44 31 23 17 11 8 6 4 4 3 2 2 1 2 2 2 0 0 0
0 0 0 0 0 0 1 6 19 30 32 33 33 30 25 20 17 16 17 20 23 25 28 33 37 40 42 42 41 35 25 17 13 10 7 4 3 1 1 1 0 0 0 0 0 0 0 0 0
0 0 0 0 0 1 6 18 32 37 32 24 18 14 11 8 7 6 7 9 11 12 14 19 22 23 24 23 20 16 11 8 6 4 3 2 1 0 0 0 0 0 0 0 0 0 0 0 0
0 0 0 0 0 1 8 23 33 34 27 16 8 6 4 3 3 2 1 2 3 4 6 8 9 9 8 7 5 4 3 3 2 1 1 1 0 0 0 0 0 0 0 0 0 0 0 0 0
0 0 0 0 0 0 5 12 22 26 22 11 5 4 3 2 1 1 0 0 0 0 1 2 2 1 1 1 0 0 1 1 1 0 0 0 0 0 0 0 0 0 0 0 0 0 0 0 0
0 0 0 0 0 0 0 3 11 19 17 9 4 3 2 1 0 0 0 0 0 0 0 0 0 0 0 0 0 0 0 0 0 0 0 0 0 0 0 0 0 0 0 0 0 0 0 0 0
0 0 0 0 0 0 0 1 8 16 14 6 3 3 1 0 0 0 0 0 0 0 0 0 0 0 0 0 0 0 0 0 0 0 0 0 0 0 0 0 0 0 0 0 0 0 0 0 0

GEFSSGP_con_prob3kmehi_066.txt.gz
EHI
0 0 0 0 0 0 0 0 0 0 0 0 0 0 0 0 0 1 7 25 51 61 48 38 38 38 31 21 12 8 9 12 15 15 15 14 11 7 3 2 2 1 0 0 0 0 0 0 0
0 0 0 0 0 0 0 0 0 0 0 0 0 0 0 0 1 3 13 36 60 68 56 44 45 46 37 23 13 7 6 8 9 9 9 8 6 4 2 1 1 0 0 0 0 0 0 0 0
0 0 0 0 0 0 0 0 0 0 0 0 0 0 0 2 4 11 28 55 73 75 63 56 57 57 45 27 14 6 2 2 3 2 2 2 1 1 0 0 0 0 0 0 0 0 0 0 0
0 0 0 0 0 0 0 0 0 0 0 0 1 2 3 9 20 34 52 72 81 77 67 63 65 63 50 33 18 8 2 1 0 0 0 0 0 0 0 0 0 0 0 0 0 0 0 0 0
0 0 0 0 0 0 0 0 0 0 0 1 3 6 10 22 43 61 71 78 83 79 70 63 64 64 56 42 27 14 7 3 1 0 0 0 0 0 0 0 0 0 0 0 0 0 0 0 0
0 0 0 0 0 0 0 0 0 0 0 1 4 7 13 29 53 68 69 73 83 85 74 60 55 57 58 51 38 24 13 6 2 1 0 0 0 0 0 0 0 0 0 0 0 0 0 0 0
0 0 0 0 0 0 0 0 0 0 0 1 4 7 11 26 47 60 63 70 83 88 80 63 50 48 52 51 43 31 19 10 4 1 0 0 0 0 0 0 0 0 0 0 0 0 0 0 0
0 0 0 0 0 0 0 0 0 0 0 1 3 5 11 24 44 61 68 73 80 84 80 69 56 47 44 42 38 30 21 12 6 2 0 0 0 0 0 0 0 0 0 0 0 0 0 0 0
0 0 0 0 0 0 0 0 0 0 0 0 1 5 14 29 49 68 77 78 76 75 74 68 60 51 44 38 33 27 19 12 7 3 1 0 0 0 0 0 0 0 0 0 0 0 0 0 0
0 0 0 0 0 0 0 0 0 0 0 0 2 8 20 34 50 68 80 80 74 72 68 61 56 51 45 43 39 31 21 12 6 3 1 0 0 0 0 0 0 0 0 0 0 0 0 0 0
0 0 0 0 0 0 0 0 0 0 0 2 6 13 22 31 43 59 74 77 72 70 64 54 47 42 41 45 44 35 23 12 5 2 1 0 0 0 0 0 0 1 1 1 0 0 0 0 0
0 0 0 0 0 0 0 0 0 0 1 4 8 14 19 23 32 48 64 69 68 66 58 49 41 34 34 38 38 29 18 8 3 1 0 0 0 0 0 0 1 2 2 1 0 0 0 0 0
0 0 0 0 0 0 0 0 0 0 1 4 7 10 13 17 25 40 57 68 69 63 53 44 37 31 29 29 25 18 11 5 1 0 0 0 0 0 0 0 1 2 1 1 0 0 0 0 0
0 0 0 0 0 0 0 0 0 0 1 3 4 4 5 11 21 35 56 72 72 62 50 38 30 28 26 22 15 10 6 2 0 0 0 0 0 0 0 0 1 1 0 0 0 0 0 0 0
0 0 0 0 0 0 0 0 1 1 2 2 2 2 4 10 18 33 55 74 76 66 52 36 27 26 25 17 9 5 3 1 0 0 0 0 0 0 0 0 0 0 0 0 0 0 0 0 0
0 0 0 0 0 0 0 1 2 2 2 3 5 7 11 15 21 33 52 72 79 73 60 47 40 39 35 26 16 10 8 5 2 0 0 0 1 1 1 1 1 1 0 0 0 0 0 0 0
0 0 0 0 0 0 1 2 4 4 5 8 11 14 18 22 28 37 51 68 80 78 71 64 62 61 56 48 37 27 21 15 8 4 1 2 3 3 2 2 2 2 1 0 0 0 0 0 0
0 0 0 0 0 1 4 6 8 9 10 14 17 19 23 29 36 45 55 67 76 78 75 74 76 75 71 66 58 47 37 27 19 11 6 5 6 6 4 3 2 2 1 0 0 0 0 0 0
0 0 0 0 2 5 10 13 15 14 15 19 23 24 31 40 45 51 57 63 68 69 69 72 77 78 76 71 66 57 44 32 23 16 11 9 8 7 6 5 3 1 1 0 0 0 0 0 0
0 0 0 1 4 10 16 21 22 21 21 24 28 32 39 46 50 52 54 54 55 55 57 62 68 73 73 69 63 54 42 30 20 14 11 11 10 8 8 7 4 2 2 1 0 0 0 0 0
0 0 0 1 4 8 14 20 25 27 28 29 33 37 40 42 44 45 44 43 43 43 44 46 51 58 62 60 55 47 38 28 18 10 8 8 7 7 7 6 4 3 3 2 1 1 0 0 0
0 0 0 1 2 3 5 10 19 27 29 30 32 35 34 32 32 31 29 29 29 30 32 31 32 38 45 48 45 40 33 25 15 7 4 3 4 4 5 4 3 2 2 2 2 1 0 0 0
0 0 0 0 0 0 0 2 9 17 22 24 25 25 23 19 18 17 16 15 15 17 19 20 20 23 29 33 33 29 24 17 10 4 1 1 3 3 3 3 2 1 1 1 1 1 0 0 0
0 0 0 0 0 0 0 0 3 9 14 17 17 14 11 9 8 7 7 6 7 8 9 12 15 18 19 21 21 19 14 10 6 3 1 1 3 3 2 1 1 0 0 0 0 0 0 0 0
0 0 0 0 0 0 0 0 2 7 11 12 10 7 5 4 3 3 3 3 4 4 5 8 11 12 12 12 13 11 9 7 5 3 2 2 2 2 1 0 0 0 0 0 0 0 0 0 0
0 0 0 0 0 0 0 0 2 6 8 7 5 4 3 3 3 3 2 2 2 3 4 5 6 7 7 7 7 5 4 4 3 2 2 2 1 1 0 0 0 0 0 0 0 0 0 0 0
0 0 0 0 0 0 0 0 1 3 4 4 3 3 2 2 2 1 1 1 1 1 2 3 3 3 3 4 3 2 1 1 1 0 1 1 0 0 0 0 0 0 0 0 0 0 0 0 0
0 0 0 0 0 0 0 0 0 1 2 2 2 1 1 1 1 0 0 0 0 0 1 1 1 1 1 1 1 0 0 0 0 0 0 0 0 0 0 0 0 0 0 0 0 0 0 0 0
0 0 0 0 0 0 0 0 1 2 1 1 1 0 0 0 0 0 0 0 0 0 0 0 0 0 0 0 0 0 0 0 0 0 0 0 0 0 0 0 0 0 0 0 0 0 0 0 0
0 0 0 0 0 0 0 0 1 3 1 0 0 0 0 0 0 0 0 0 0 0 0 0 0 0 0 0 0 0 0 0 0 0 0 0 0 0 0 0 0 0 0 0 0 0 0 0 0